[[{"header":{"parameterUnit":"m.s-1","parameterCategory":1,"la1":30.2991,"la2":30.254,"lo1":-89.0895,"lo2":-89.0444,"dy":0.0017,"dx":0.0017,"nx":28,"ny":28,"refTime":"2023-07-27T09:00:00:Z","depth":0,"parameterNumber":2,"parameterNumberName":"U-component_of_WINDS"},"data":[0,0,0,0,0,0,0,0,0,0,0,0,0,0,0,0,0,0,0,0,0,0,0,0,0,0,0,0,0,0,0,0,0,0,0,0,0,0,0,0,0,0,0,0,0,0,0,0,0,0,0,0,0,0,0,0,0,0,1.3877,1.3878,0,1.4011,1.4013,1.4014,1.4062,1.4061,1.4061,1.406,1.4195,1.4199,1.4203,0,0,0,0,0,0,0,0,0,0,0,0,0,1.3658,1.3662,1.3877,1.3878,1.388,1.4011,1.4013,1.4014,1.4062,1.4061,1.4061,1.406,1.4194,1.4199,1.4203,0,0,0,0,0,0,0,0,0,0,0,0,0,1.3768,1.3663,1.3876,1.3919,1.3925,1.401,1.4013,1.4015,1.4062,1.4061,1.406,1.406,1.4192,1.4198,1.4204,1.4256,0,0,1.4223,1.4225,0,0,0,0,0,0,0,0,1.3762,1.3776,1.3911,1.3917,1.3923,1.4019,1.3985,1.4096,1.4062,1.401,1.406,1.4059,1.4137,1.4147,1.4174,1.4262,1.4268,1.4223,1.4227,1.4229,1.4231,0,0,0,0,0,0,0,1.3754,1.3771,1.393,1.3913,1.392,1.3931,1.3946,1.4006,1.4076,1.4014,1.4018,1.4033,1.414,1.4168,1.4178,1.427,1.4223,1.4228,1.4232,1.4234,1.4407,1.4407,0,0,0,0,0,0,1.374,1.3764,1.3925,1.3934,1.3839,1.3936,1.3952,1.3989,1.4075,1.4088,1.4034,1.4035,1.4158,1.4171,1.4183,1.4249,1.4229,1.4235,1.4239,1.4406,1.4407,1.4408,0,0,0,0,0,0,1.3735,1.3754,1.392,1.385,1.3872,1.394,1.3981,1.3992,1.402,1.409,1.4102,1.405,1.4158,1.4174,1.4237,1.4254,1.4238,1.4243,1.4405,1.4406,1.4407,1.4381,0,0,0,0,0,0,1.3729,1.3752,1.3773,1.385,1.3876,1.3973,1.3982,1.3995,1.4031,1.4034,1.4109,1.412,1.4159,1.4228,1.4243,1.4262,1.4248,1.4403,1.4405,1.4407,1.438,1.4381,1.4382,0,0,0,0,0,1.3721,1.376,1.3774,1.3793,1.3904,1.3974,1.3989,1.4033,1.4032,1.4053,1.4098,1.4118,1.425,1.4234,1.4252,1.4272,1.4402,1.4405,1.4407,1.438,1.4381,1.4382,0,0,0,0,0,0,1.3682,1.3771,1.3787,1.3853,1.3906,1.3982,1.401,1.4032,1.4086,1.4086,1.4138,1.4154,1.4213,1.4249,1.423,1.4327,1.4327,1.4333,1.4301,1.4302,1.4303,1.4293,1.4253,0,0,0,0,0,1.3681,1.3732,1.3806,1.3857,1.3883,1.3942,1.3974,1.4004,1.406,1.4082,1.4132,1.4185,1.4239,1.4272,1.4325,1.4386,1.4403,1.4409,1.4409,1.4409,1.4414,1.4448,1.4451,1.4415,1.4415,1.4415,0,0,1.3679,1.3734,1.3763,1.385,1.3895,1.3945,1.396,1.4013,1.4051,1.409,1.4153,1.4191,1.4254,1.4316,1.4346,1.4348,1.4427,1.4412,1.4412,1.4416,1.445,1.4453,1.4456,1.4416,1.4416,1.4416,0,0,1.3702,1.3749,1.3797,1.3841,1.3908,1.3948,1.3959,1.4032,1.4059,1.4123,1.4154,1.4199,1.429,1.4333,1.4367,1.4406,1.4426,1.4421,1.4424,1.4457,1.446,1.4462,1.4475,1.448,1.4425,1.4425,1.4425,0,1.3691,1.377,1.3818,1.3869,1.3906,1.3945,1.3992,1.4033,1.4113,1.4138,1.4139,1.4254,1.4299,1.4371,1.438,1.4407,1.442,1.4413,1.4455,1.4459,1.4462,1.4475,1.448,1.4424,1.4424,1.4425,1.4425,0,1.3753,1.3807,1.3837,1.3915,1.3955,1.4004,1.4058,1.4093,1.4119,1.4157,1.4221,1.4277,1.4341,1.4361,1.4386,1.4436,1.4436,1.4446,1.4447,1.4464,1.4477,1.4482,1.4423,1.4423,1.4424,1.4424,0,0,1.3755,1.3859,1.3869,1.3905,1.3982,1.4024,1.4074,1.4138,1.4167,1.4221,1.4264,1.434,1.4349,1.4388,1.4418,1.4447,1.4473,1.4453,1.4456,1.4454,1.4531,1.4523,1.4528,1.4487,1.4488,1.4489,1.4525,0,1.3788,1.3881,1.3925,1.3998,1.4047,1.4085,1.4128,1.418,1.4217,1.4264,1.4304,1.4357,1.4366,1.439,1.442,1.4463,1.4489,1.4462,1.4526,1.4528,1.4509,1.4535,1.4526,1.4558,1.4531,1.4532,1.4533,0,1.3838,1.3893,1.3971,1.4042,1.4065,1.4103,1.4165,1.421,1.4268,1.4293,1.4336,1.4366,1.4419,1.4417,1.449,1.4471,1.45,1.4525,1.4527,1.4535,1.4531,1.4542,1.4569,1.4573,1.4541,1.4541,1.454,0,1.3831,1.3924,1.3983,1.4013,1.4097,1.4123,1.4159,1.4217,1.4253,1.4307,1.433,1.4389,1.4421,1.4465,1.4509,1.4504,1.4578,1.458,1.46,1.4598,1.4613,1.4612,1.4644,1.4633,1.4633,1.4632,1.4632,0,1.3862,1.3908,1.3981,1.4017,1.4069,1.4119,1.4169,1.4208,1.4259,1.4303,1.4338,1.4378,1.4434,1.4481,1.4516,1.4571,1.4585,1.4606,1.4615,1.4603,1.46,1.4622,1.4621,1.4634,1.4634,1.4633,1.4633,0,1.3863,1.3914,1.398,1.4055,1.4074,1.411,1.4173,1.4209,1.4248,1.4302,1.4318,1.4378,1.4435,1.4484,1.4558,1.4582,1.4638,1.4649,1.4618,1.4623,1.4639,1.4637,1.4687,1.4696,1.4678,1.4679,1.4679,0,1.3879,1.3916,1.3995,1.4027,1.4063,1.4114,1.415,1.42,1.4237,1.4306,1.4333,1.4393,1.4443,1.4531,1.4581,1.4638,1.465,1.4664,1.4659,1.4645,1.4649,1.4647,1.465,1.4663,1.4663,1.4663,1.4663,0,1.3903,1.3926,1.3978,1.4039,1.4082,1.4132,1.4183,1.4206,1.4266,1.4305,1.4363,1.4402,1.4478,1.4536,1.4599,1.4635,1.4659,1.4665,1.4672,1.466,1.4641,1.4651,1.4618,1.4663,1.4663,1.4663,1.4663,1.4663,1.3912,1.3946,1.4006,1.4063,1.4107,1.4153,1.419,1.4234,1.4285,1.4351,1.4377,1.4437,1.4494,1.458,1.4616,1.4663,1.4667,1.4678,1.468,1.4682,1.468,1.4633,1.4674,1.4675,1.4675,1.4675,1.4675,0,1.3936,1.3978,1.4029,1.41,1.4144,1.4164,1.4221,1.4256,1.4308,1.436,1.4409,1.4476,1.4532,1.4587,1.4646,1.4672,1.4685,1.4686,1.4684,1.4692,1.4673,1.4661,1.4675,1.4675,1.4675,1.4675,1.4675,1.4675,1.3955,1.4013,1.4043,1.4123,1.4164,1.4223,1.4254,1.4297,1.4339,1.4412,1.4459,1.4495,1.4548,1.4611,1.4663,1.4678,1.4697,1.4696,1.4713,1.4694,1.4693,1.4693,1.4681,1.47,1.47,1.4728,1.4728,1.4728]},{"header":{"parameterUnit":"m.s-1","parameterCategory":1,"la1":30.2991,"la2":30.254,"lo1":-89.0895,"lo2":-89.0444,"dy":0.0017,"dx":0.0017,"nx":28,"ny":28,"refTime":"2023-07-27T09:00:00:Z","depth":0,"parameterNumber":3,"parameterNumberName":"V-component_of_WINDS"},"data":[0,0,0,0,0,0,0,0,0,0,0,0,0,0,0,0,0,0,0,0,0,0,0,0,0,0,0,0,0,0,0,0,0,0,0,0,0,0,0,0,0,0,0,0,0,0,0,0,0,0,0,0,0,0,0,0,0,0,3.4496,3.4496,0,3.444,3.444,3.4439,3.4396,3.4395,3.4395,3.4395,3.4331,3.433,3.4329,0,0,0,0,0,0,0,0,0,0,0,0,0,3.4561,3.456,3.4496,3.4496,3.4495,3.4441,3.444,3.4439,3.4396,3.4395,3.4395,3.4394,3.4332,3.433,3.4328,0,0,0,0,0,0,0,0,0,0,0,0,0,3.4522,3.456,3.4497,3.4467,3.4464,3.4441,3.444,3.4439,3.4396,3.4395,3.4395,3.4394,3.4332,3.433,3.4328,3.4328,0,0,3.4322,3.4321,0,0,0,0,0,0,0,0,3.4524,3.4519,3.4472,3.4469,3.4465,3.4425,3.4439,3.4401,3.4396,3.4422,3.4395,3.4394,3.4362,3.4358,3.4348,3.4325,3.4322,3.4322,3.4321,3.432,3.4319,0,0,0,0,0,0,0,3.4527,3.4521,3.4474,3.4471,3.4467,3.4455,3.4449,3.4432,3.4396,3.4419,3.4416,3.441,3.436,3.435,3.4347,3.4321,3.4322,3.432,3.4319,3.4318,3.4294,3.4295,0,0,0,0,0,0,3.4535,3.4524,3.4476,3.4472,3.4494,3.4454,3.4447,3.4438,3.4396,3.4389,3.4411,3.4409,3.4354,3.4349,3.4344,3.4341,3.432,3.4318,3.4317,3.4294,3.4295,3.4295,0,0,0,0,0,0,3.4536,3.4531,3.4478,3.4497,3.449,3.4454,3.4444,3.4437,3.4428,3.439,3.4382,3.4408,3.4353,3.4347,3.4333,3.4338,3.4317,3.4315,3.4293,3.4294,3.4295,3.4335,0,0,0,0,0,0,3.4538,3.4532,3.4532,3.4498,3.4489,3.4469,3.4444,3.4437,3.4425,3.4421,3.4385,3.4378,3.4352,3.4336,3.4331,3.4335,3.4314,3.4292,3.4294,3.4295,3.4333,3.4337,3.434,0,0,0,0,0,3.4541,3.4544,3.4533,3.4527,3.4489,3.447,3.4464,3.4437,3.4426,3.4425,3.4401,3.4379,3.4339,3.4335,3.4329,3.4332,3.4292,3.4293,3.4294,3.4331,3.4336,3.434,0,0,0,0,0,0,3.4578,3.4539,3.4526,3.4519,3.4498,3.4463,3.4461,3.4443,3.4423,3.442,3.4385,3.4377,3.4366,3.4348,3.4344,3.433,3.4312,3.4313,3.4342,3.4347,3.4351,3.4355,3.4312,0,0,0,0,0,3.4586,3.4575,3.4541,3.4538,3.4529,3.4497,3.4487,3.4468,3.4444,3.4435,3.4409,3.4386,3.4367,3.4356,3.4337,3.433,3.4321,3.433,3.4333,3.4337,3.4337,3.4331,3.4335,3.4299,3.4299,3.4299,0,0,3.4601,3.4579,3.4574,3.4545,3.4527,3.4515,3.449,3.4478,3.4468,3.4432,3.4418,3.4399,3.4369,3.4359,3.4353,3.4343,3.4345,3.4338,3.4341,3.4339,3.4333,3.4336,3.4339,3.43,3.43,3.43,0,0,3.4623,3.4606,3.4601,3.4584,3.4558,3.4537,3.4536,3.4503,3.449,3.4475,3.4448,3.4435,3.4405,3.4385,3.4371,3.4387,3.4366,3.4382,3.4401,3.4396,3.4399,3.4401,3.4407,3.4409,3.4382,3.4383,3.4383,0,3.4645,3.4628,3.4601,3.4591,3.4579,3.4549,3.4543,3.4527,3.4495,3.4486,3.4477,3.4439,3.4417,3.4401,3.4406,3.4395,3.4392,3.4386,3.4401,3.4403,3.4405,3.4409,3.4412,3.4385,3.4384,3.4384,3.4384,0,3.4655,3.4644,3.4643,3.4616,3.4603,3.4596,3.4567,3.4557,3.4539,3.4519,3.4504,3.4477,3.4453,3.4448,3.4429,3.4429,3.4424,3.4409,3.439,3.4411,3.4415,3.4416,3.4388,3.4387,3.4386,3.4386,0,0,3.4698,3.4657,3.4657,3.4645,3.4614,3.4603,3.4594,3.4572,3.4565,3.4544,3.4534,3.451,3.4496,3.448,3.4459,3.4455,3.4469,3.4439,3.4438,3.4445,3.4467,3.4478,3.4481,3.4455,3.4455,3.4455,3.4469,0,3.4714,3.4698,3.4674,3.4665,3.4654,3.4625,3.4617,3.4596,3.4577,3.4563,3.4541,3.4525,3.4507,3.4498,3.4493,3.4468,3.4472,3.4467,3.4444,3.4444,3.4452,3.4483,3.4495,3.4509,3.447,3.447,3.4471,0,3.4731,3.4714,3.4705,3.4676,3.467,3.4664,3.4642,3.463,3.4605,3.4591,3.4575,3.4553,3.454,3.4525,3.4506,3.4503,3.4492,3.4479,3.4479,3.4475,3.4458,3.4479,3.4513,3.4515,3.4473,3.4472,3.4472,0,3.4763,3.4738,3.4729,3.4719,3.4685,3.4681,3.4666,3.4641,3.463,3.461,3.4602,3.4581,3.4569,3.4552,3.4524,3.4515,3.4508,3.449,3.4495,3.4495,3.4493,3.4494,3.4526,3.4488,3.4488,3.4488,3.4488,0,3.4783,3.4778,3.4743,3.4737,3.4731,3.4703,3.4697,3.4679,3.4658,3.4647,3.462,3.461,3.4575,3.456,3.4538,3.4525,3.452,3.4507,3.4501,3.451,3.4511,3.4501,3.4499,3.4489,3.4488,3.4488,3.4488,0,3.4817,3.4793,3.4782,3.4751,3.4743,3.474,3.4713,3.4705,3.4686,3.4673,3.4668,3.4636,3.4617,3.4588,3.4561,3.4546,3.4537,3.4527,3.4546,3.4542,3.4548,3.4548,3.4574,3.4576,3.4538,3.4539,3.4539,0,3.4831,3.4827,3.4797,3.4789,3.4776,3.4763,3.4752,3.4724,3.4714,3.4686,3.4682,3.4663,3.4645,3.4617,3.459,3.4569,3.4558,3.4569,3.4554,3.4563,3.4557,3.4558,3.4557,3.4571,3.4572,3.4572,3.4573,0,3.4859,3.4848,3.4834,3.4816,3.4805,3.4789,3.4771,3.4766,3.4733,3.4722,3.4705,3.4692,3.4665,3.4645,3.462,3.4603,3.4582,3.4578,3.4578,3.4585,3.4596,3.459,3.4554,3.4577,3.4577,3.4576,3.4576,3.4576,3.4883,3.4878,3.4857,3.4842,3.4827,3.4811,3.4803,3.4784,3.4769,3.4747,3.473,3.4714,3.4689,3.4654,3.4638,3.4623,3.4614,3.4614,3.4614,3.4614,3.4617,3.46,3.4619,3.4618,3.4618,3.4618,3.4618,0,3.4909,3.4894,3.4881,3.4859,3.4847,3.4832,3.4812,3.4802,3.4789,3.4769,3.4753,3.4733,3.4714,3.4686,3.4664,3.4658,3.4648,3.4653,3.4653,3.4649,3.4627,3.4629,3.4662,3.4662,3.4662,3.4662,3.4662,3.4662,3.4921,3.4912,3.4899,3.4882,3.4866,3.4852,3.4842,3.4827,3.4811,3.479,3.4775,3.4758,3.4735,3.4711,3.4693,3.4685,3.4678,3.4686,3.4675,3.4654,3.465,3.4647,3.4648,3.4685,3.4685,3.4698,3.4698,3.4699]}]]